Regional Weather Roundup
Issued by NWS Portland, ME

Current Version | Previous Version | Text Only | Print | Product List | Glossary Off
Versions: 1 2 3 4 5 6 7 8 9 10 11 12 13 14 15 16 17 18 19 20 21 22 23 24 25 26 27 28 29 30 31 32 33 34 35 36 37 38 39 40 41 42 43 44 45 46 47 48 49 50
341 ASUS41 KGYX 121805 RWRGYX WEATHER ROUNDUP FOR MAINE AND NEW HAMPSHIRE NATIONAL WEATHER SERVICE GRAY ME 100 PM EST TUE DEC 12 2017 MEZ002-005-006-010-012-015-018-020-021-024-026-027-029-121900- MAINE CITY SKY/WX TMP DP RH WIND PRES REMARKS PORTLAND LGT SNOW 23 20 88 VRB7 29.65F VSB 1 6HR MIN TEMP: 19; 6HR MAX TEMP: 23; 6HR PCP: 0.15; SANFORD LGT SNOW 22 20 92 N8 29.62F FOG BAR HARBOR FLURRIES 28 26 92 N9 29.73F WISCASSET LGT SNOW 23 21 92 VRB5 29.69F FOG 6HR MIN TEMP: 19; 6HR MAX TEMP: 23; 6HR PCP: 0.03; ROCKLAND LGT SNOW 31 30 96 NE10 29.69F VSB 3/4 FRYEBURG SNOW 19 18 95 N7 29.65F VSB 1/2 6HR MIN TEMP: 17; 6HR MAX TEMP: 19; 6HR PCP: 0.22; LEWISTONAUBURN LGT SNOW 18 15 88 N10 29.67F VSB 1 WCI 6 AUGUSTA LGT SNOW 18 14 84 N13 29.69F VSB 3/4 WCI 5 6HR MIN TEMP: 14; 6HR MAX TEMP: 18; 6HR PCP: 0.02; WATERVILLE LGT SNOW 17 14 88 NE9 29.67F FOG BANGOR SNOW 19 16 88 N10 29.75F VSB 1/2 WCI 7 6HR MIN TEMP: 14; 6HR MAX TEMP: 20; 6HR PCP: 0.07; GREENVILLE N/A 16 14 92 E7 29.65F 6HR MIN TEMP: 8; 6HR MAX TEMP: 16; 6HR PCP: 0.21; MILLINOCKET SNOW 12 9 87 NE5 29.82F VSB 1/4 6HR MIN TEMP: 8; 6HR MAX TEMP: 12; 6HR PCP: 0.03; HOULTON LGT SNOW 16 13 88 NE8 29.82F VSB 3/4 6HR MIN TEMP: 0; 6HR MAX TEMP: 16; 6HR PCP: 0.03; PRESQUE ISLE SNOW 10 7 87 NE5 29.87F VSB 1/4 6HR MIN TEMP: -5; 6HR MAX TEMP: 10; 6HR PCP: 0.02; FRENCHVILLE LGT SNOW 7 4 87 E7 29.84F VSB 3/4 6HR MIN TEMP: -1; 6HR MAX TEMP: 7; 6HR PCP: 0.02; CARIBOU SNOW 12 7 80 NE7 29.85F VSB 1/2 6HR MIN TEMP: 0; 6HR MAX TEMP: 12; 6HR PCP: 0.06; $$ NHZ002-005-008-009-011-012-014-121900- NEW HAMPSHIRE CITY SKY/WX TMP DP RH WIND PRES REMARKS PORTSMOUTH FRZ RAIN 27 25 91 N7 29.58F FOG ROCHESTER LGT SNOW 23 22 96 N10 29.60F VSB 3/4 WCI 12 6HR MIN TEMP: 22; 6HR MAX TEMP: 23; 6HR PCP: TRACE; NASHUA FRZ RAIN 31 29 92 NW5 29.55F FOG MANCHESTER LGTSLEET 30 27 88 NE7 29.54F FOG 6HR MIN TEMP: 27; 6HR MAX TEMP: 30; 6HR PCP: 0.11; CONCORD LGT SNOW 28 24 85 NE3 29.56F VSB 1 6HR MIN TEMP: 26; 6HR MAX TEMP: 28; 6HR PCP: 0.27; LACONIA LGT SNOW 22 19 89 NE15 29.59F VSB 1 WCI 9 PLYMOUTH LGT SNOW 24 21 90 CALM 29.59F BERLIN LGT SNOW 20 16 84 N3 29.58F FOG 6HR MIN TEMP: 15; 6HR MAX TEMP: 20; 6HR PCP: 0.08; WHITEFIELD FLURRIES 31 25 78 CALM 29.50F 6HR MIN TEMP: 24; 6HR MAX TEMP: 31; 6HR PCP: TRACE; JAFFREY LGT SNOW 31 29 92 VRB3 29.50F VSB 3/4 6HR MIN TEMP: 28; 6HR MAX TEMP: 31; 6HR PCP: 0.13; KEENE LGT SNOW 33 30 88 N7 29.51F FOG LEBANON SNOW 28 25 88 CALM 29.53F VSB 1/2 6HR MIN TEMP: 27; 6HR MAX TEMP: 29; 6HR PCP: 0.12; MT WASHINGTON SNOW 16 16 100 S52G61 N/A VSB 0 WCI -9 6HR MIN TEMP: 6; 6HR MAX TEMP: 16; 6HR PCP: 0.40; $$ VTZ005-007-008-121900- VERMONT CITY SKY/WX TMP DP RH WIND PRES REMARKS ST JOHNSBURY N/A 26 25 96 MISG 29.50F MONTPELIER SNOW 27 26 96 SE5 29.52F VSB 1/4 BURLINGTON LGT SNOW 31 28 89 CALM 29.46F FOG $$ MAZ007-012-024-CTZ003-RIZ002-NYZ038-NYZ072-121900- SOUTHERN NEW ENGLAND AND NY CITY SKY/WX TMP DP RH WIND PRES REMARKS WORCESTER LGT RAIN 33 31 92 VRB5 29.48F VSB 1/4 NANTUCKET CLOUDY 49 45 86 E13 29.56F PROVIDENCE CLOUDY 47 44 90 SE9 29.50F HARTFORD LGT RAIN 34 33 96 NW7 29.48F FOG ALBANY CLOUDY 35 32 88 SW6 29.46F FOG NEW YORK CITY CLOUDY 48 36 63 W13 29.45F $$ ANZ081-ANZ082-ANZ150-NHZ014-MEZ023>029-121900- COASTAL MARINE OBSERVATIONS STATION/POSITION TIME TEMP WIND PRES WAVE AIR SEA DIR/SP/G HT/PER (UTC) (F) (DEG/KT/KT) (MB) (FT/S) MOUNT DESERT ROC 1800 44 140/ 20/ 24 1006.1F MATINICUS ROCK 1700 43 150/ 23/ 26 1005.8F ISLE OF SHOALS 1700 44 150/ 22/ 26 1002.8F JEFFREYS LEDGE 1736 48 N/A 6/ 5 GEORGES BANK BUO 1650 56 52 1006.7 5/ 8 $$ .............KEY.............. WCI - WIND CHILL TC - TEMPERATURE IN CELSIUS VSB - VISIBILITY IN MILES HX - HEAT INDEX FAIR- INDICATES FEW OR NO CLOUDS BELOW 12,000 FT, WITH NO SIGNIFICANT WEATHER AND/OR OBSTRUCTIONS TO VISIBILITY.

USA.gov is the U.S. government's official web portal to all federal, state and local government web resources and services.